When you browse on this site, cookies collect data to enhance your experience and personalize the content and advertising you see.
Visit our Privacy Policy to learn more. By continuing to use the site, you agree to this use of cookies and data.
  • In Hungary
  • List of Countries
  • For 7 days
  • Water Temperature
  • Satellite Maps
  • Weather Map
  • News
  • Weather Widgets
  • user-avatar
    Login

    Hourly Weather Venice

    Today, 26 June, Wednesday

    Time Temperature Precipitation Wind Pressure Humidity
    00:00 +30°C° 0.2 mm 3 mps 763 mmHg 71%
    01:00 +29°C° 0.2 mm 3 mps 763 mmHg 71%
    02:00 +29°C° 0.1 mm 3 mps 763 mmHg 71%
    03:00 +29°C° 0.1 mm 3 mps 762 mmHg 70%
    04:00 +28°C° 0.1 mm 3 mps 762 mmHg 70%
    05:00 +29°C° 0 mm 3 mps 762 mmHg 70%
    06:00 +29°C° 0 mm 2 mps 763 mmHg 71%
    07:00 +30°C° 0 mm 2 mps 763 mmHg 71%
    08:00 +31°C° 0 mm 2 mps 763 mmHg 65%
    09:00 +34°C° 0 mm 2 mps 763 mmHg 58%
    10:00 +36°C° 0 mm 2 mps 763 mmHg 51%
    11:00 +37°C° 0.1 mm 2 mps 763 mmHg 48%
    12:00 +38°C° 0.1 mm 3 mps 763 mmHg 44%
    13:00 +40°C° 0.1 mm 4 mps 763 mmHg 40%
    14:00 +38°C° 0 mm 4 mps 763 mmHg 43%
    15:00 +37°C° 0 mm 5 mps 762 mmHg 46%
    16:00 +37°C° 0 mm 5 mps 762 mmHg 49%
    17:00 +36°C° 0.1 mm 5 mps 762 mmHg 52%
    18:00 +34°C° 0.1 mm 5 mps 762 mmHg 56%
    19:00 +33°C° 0.1 mm 5 mps 762 mmHg 60%
    20:00 +32°C° 1.9 mm 5 mps 763 mmHg 60%
    21:00 +29°C° 1.9 mm 4 mps 763 mmHg 60%
    22:00 +28°C° 1.9 mm 3 mps 763 mmHg 60%
    23:00 +28°C° 0 mm 3 mps 763 mmHg 63%

    Tomorrow, 27 June, Thursday

    Time Temperature Precipitation Wind Pressure Humidity
    00:00 +27°C° 0 mm 3 mps 763 mmHg 67%
    01:00 +27°C° 0 mm 2 mps 763 mmHg 71%
    02:00 +27°C° 0 mm 2 mps 762 mmHg 72%
    03:00 +27°C° 0 mm 2 mps 762 mmHg 73%
    04:00 +27°C° 0 mm 2 mps 762 mmHg 75%
    05:00 +27°C° 0 mm 2 mps 762 mmHg 75%
    06:00 +27°C° 0 mm 2 mps 762 mmHg 75%
    07:00 +28°C° 0 mm 2 mps 763 mmHg 76%
    08:00 +29°C° 0 mm 2 mps 763 mmHg 68%
    09:00 +31°C° 0 mm 2 mps 763 mmHg 61%
    10:00 +34°C° 0 mm 2 mps 763 mmHg 54%
    11:00 +35°C° 0.1 mm 2 mps 763 mmHg 50%
    12:00 +36°C° 0.1 mm 2 mps 763 mmHg 46%
    13:00 +36°C° 0.1 mm 2 mps 763 mmHg 43%
    14:00 +36°C° 0.1 mm 3 mps 762 mmHg 46%
    15:00 +35°C° 0.1 mm 3 mps 762 mmHg 50%
    16:00 +34°C° 0.1 mm 3 mps 762 mmHg 53%
    17:00 +34°C° 0.1 mm 3 mps 762 mmHg 56%
    18:00 +33°C° 0.1 mm 3 mps 762 mmHg 58%
    19:00 +33°C° 0.1 mm 3 mps 762 mmHg 61%
    20:00 +32°C° 0.8 mm 4 mps 762 mmHg 64%
    21:00 +30°C° 0.8 mm 4 mps 762 mmHg 68%
    22:00 +28°C° 0.8 mm 4 mps 763 mmHg 71%
    23:00 +28°C° 0.4 mm 4 mps 762 mmHg 73%

    Day after tomorrow, 28 June, Friday

    Time Temperature Precipitation Wind Pressure Humidity
    00:00 +28°C° 0.4 mm 4 mps 762 mmHg 76%
    01:00 +27°C° 0.4 mm 4 mps 762 mmHg 78%
    02:00 +27°C° 0.1 mm 4 mps 762 mmHg 79%
    03:00 +27°C° 0.1 mm 4 mps 762 mmHg 81%
    04:00 +26°C° 0.1 mm 4 mps 762 mmHg 83%
    05:00 +27°C° 0.6 mm 3 mps 762 mmHg 82%
    06:00 +27°C° 0.6 mm 3 mps 762 mmHg 81%
    07:00 +27°C° 0.6 mm 3 mps 762 mmHg 81%
    08:00 +29°C° 0.1 mm 3 mps 763 mmHg 73%
    09:00 +31°C° 0.1 mm 3 mps 763 mmHg 64%
    10:00 +34°C° 0.1 mm 3 mps 763 mmHg 56%
    11:00 +34°C° 0 mm 3 mps 763 mmHg 54%
    12:00 +35°C° 0 mm 3 mps 763 mmHg 51%
    13:00 +36°C° 0 mm 2 mps 763 mmHg 48%
    14:00 +36°C° 0.4 mm 2 mps 762 mmHg 48%
    15:00 +36°C° 0.4 mm 3 mps 762 mmHg 48%
    16:00 +36°C° 0.4 mm 3 mps 762 mmHg 49%
    17:00 +35°C° 0.4 mm 3 mps 762 mmHg 54%
    18:00 +34°C° 0.4 mm 3 mps 762 mmHg 59%
    19:00 +31°C° 0.4 mm 3 mps 762 mmHg 64%
    20:00 +32°C° 0.8 mm 4 mps 762 mmHg 69%
    21:00 +30°C° 0.8 mm 5 mps 763 mmHg 73%
    22:00 +29°C° 0.8 mm 5 mps 763 mmHg 78%
    23:00 +28°C° 0.2 mm 5 mps 763 mmHg 80%

    29 June, Saturday

    Time Temperature Precipitation Wind Pressure Humidity
    00:00 +28°C° 0.2 mm 5 mps 762 mmHg 83%
    01:00 +27°C° 0.2 mm 6 mps 762 mmHg 85%
    02:00 +27°C° 0.1 mm 5 mps 762 mmHg 86%
    03:00 +27°C° 0.1 mm 4 mps 762 mmHg 88%
    04:00 +26°C° 0.1 mm 4 mps 762 mmHg 89%
    05:00 +27°C° 0.1 mm 4 mps 762 mmHg 87%
    06:00 +27°C° 0.1 mm 3 mps 762 mmHg 85%
    07:00 +28°C° 0.1 mm 3 mps 763 mmHg 83%
    08:00 +29°C° 0.8 mm 4 mps 763 mmHg 75%
    09:00 +30°C° 0.8 mm 4 mps 763 mmHg 68%
    10:00 +33°C° 0.8 mm 5 mps 764 mmHg 60%
    11:00 +30°C° 0.6 mm 5 mps 764 mmHg 65%
    12:00 +29°C° 0.6 mm 5 mps 764 mmHg 70%
    13:00 +28°C° 0.6 mm 5 mps 764 mmHg 74%
    14:00 +28°C° 0 mm 5 mps 763 mmHg 74%
    15:00 +28°C° 0 mm 5 mps 763 mmHg 74%
    16:00 +28°C° 0 mm 5 mps 763 mmHg 73%
    17:00 +27°C° 0 mm 5 mps 763 mmHg 75%
    18:00 +27°C° 0 mm 6 mps 763 mmHg 77%
    19:00 +26°C° 0 mm 7 mps 763 mmHg 79%
    20:00 +26°C° 0 mm 6 mps 763 mmHg 76%
    21:00 +26°C° 0 mm 5 mps 763 mmHg 73%
    22:00 +27°C° 0 mm 4 mps 764 mmHg 71%
    23:00 +26°C° 0 mm 4 mps 763 mmHg 73%

    30 June, Sunday

    Time Temperature Precipitation Wind Pressure Humidity
    00:00 +26°C° 0 mm 4 mps 763 mmHg 76%
    01:00 +26°C° 0 mm 4 mps 763 mmHg 79%
    02:00 +26°C° 0 mm 3 mps 763 mmHg 80%
    03:00 +26°C° 0 mm 3 mps 763 mmHg 82%
    04:00 +25°C° 0 mm 3 mps 762 mmHg 83%
    05:00 +26°C° 0 mm 3 mps 763 mmHg 82%
    06:00 +26°C° 0 mm 3 mps 763 mmHg 81%
    07:00 +26°C° 0 mm 3 mps 763 mmHg 81%
    08:00 +28°C° 0.1 mm 3 mps 763 mmHg 73%
    09:00 +30°C° 0.1 mm 3 mps 763 mmHg 65%
    10:00 +32°C° 0.1 mm 2 mps 764 mmHg 57%
    11:00 +34°C° 0.3 mm 2 mps 763 mmHg 54%
    12:00 +34°C° 0.3 mm 2 mps 763 mmHg 51%
    13:00 +34°C° 0.3 mm 1 mps 763 mmHg 47%
    14:00 +35°C° 0 mm 2 mps 762 mmHg 49%
    15:00 +35°C° 0 mm 2 mps 762 mmHg 50%
    16:00 +35°C° 0 mm 2 mps 762 mmHg 52%
    17:00 +32°C° 0.6 mm 2 mps 762 mmHg 58%
    18:00 +31°C° 0.6 mm 2 mps 762 mmHg 64%
    19:00 +30°C° 0.6 mm 2 mps 762 mmHg 71%
    20:00 +29°C° 0.2 mm 2 mps 762 mmHg 73%
    21:00 +29°C° 0.2 mm 2 mps 762 mmHg 75%
    22:00 +28°C° 0.2 mm 2 mps 763 mmHg 76%
    23:00 +28°C° 0.1 mm 2 mps 762 mmHg 77%

    1 July, Monday

    Time Temperature Precipitation Wind Pressure Humidity
    00:00 +28°C° 0.1 mm 1 mps 762 mmHg 77%
    01:00 +28°C° 0.1 mm 1 mps 762 mmHg 78%
    02:00 +27°C° 0 mm 1 mps 762 mmHg 79%
    03:00 +27°C° 0 mm 2 mps 762 mmHg 80%
    04:00 +27°C° 0 mm 2 mps 762 mmHg 80%
    05:00 +27°C° 0.4 mm 2 mps 762 mmHg 79%
    06:00 +27°C° 0.4 mm 2 mps 762 mmHg 78%
    07:00 +28°C° 0.4 mm 2 mps 762 mmHg 77%
    08:00 +29°C° 0.4 mm 2 mps 763 mmHg 70%
    09:00 +31°C° 0.4 mm 3 mps 763 mmHg 63%
    10:00 +34°C° 0.4 mm 3 mps 763 mmHg 56%
    11:00 +35°C° 0.1 mm 3 mps 763 mmHg 52%
    12:00 +36°C° 0.1 mm 3 mps 763 mmHg 48%
    13:00 +37°C° 0.1 mm 4 mps 763 mmHg 44%
    14:00 +36°C° 0.1 mm 4 mps 762 mmHg 50%
    15:00 +34°C° 0.1 mm 5 mps 762 mmHg 56%
    16:00 +33°C° 0.1 mm 6 mps 761 mmHg 61%
    17:00 +33°C° 0.1 mm 5 mps 761 mmHg 63%
    18:00 +32°C° 0.1 mm 5 mps 761 mmHg 64%
    19:00 +32°C° 0.1 mm 5 mps 761 mmHg 66%
    20:00 +30°C° 0 mm 4 mps 761 mmHg 67%
    21:00 +30°C° 0 mm 4 mps 762 mmHg 68%
    22:00 +29°C° 0 mm 4 mps 762 mmHg 69%
    23:00 +29°C° 0 mm 3 mps 762 mmHg 70%
    Show more